Location: Ingoldesthorpe
(52.8667°N, 0.5167°E)
Time: 14:20:38
(UTC+00:00)

Cosmos 1605 Rocket - Pass Details

Date: 19 May 2025
Orbit: 944 x 1005 km, 82.9° (Epoch: 17 June)

Event Time Altitude Azimuth Distance (km) Brightness Sun altitude
Rises 23:22:42 0° 348° (NNW) 3,734 8.9 -16.8°
Reaches altitude 10° 23:25:15 10° 347° (NNW) 2,774 7.7 -16.9°
Maximum altitude 23:31:37 78° 264° (W) 1,013 4.0 -17.0°
Enters shadow 23:35:18 26° 181° (S) 1,807 4.8 -17.0°
